[[{"header":{"parameterUnit":"m.s-1","parameterCategory":2,"la1":30.2991,"la2":30.254,"lo1":-89.0895,"lo2":-89.0444,"dy":0.0017,"dx":0.0017,"nx":28,"ny":28,"refTime":"2023-07-21T03:00:00:Z","depth":"0","parameterNumber":2,"parameterNumberName":"U-component_of_CURRENTS"},"data":[0,0,0,0,0,0,0,0,0,0,0,0,0,0,0,0,0,0,0,0,0,0,0,0,0,0,0,0,0,0,0,0,0,0,0,0,0,0,0,0,0,0,0,0,0,0,0,0,0,0,0,0,0,0,0,0,0,0,0.3564,0.3565,0,0.3656,0.3658,0.3659,0.3669,0.3668,0.3667,0.3666,0.3699,0.37,0.3702,0,0,0,0,0,0,0,0,0,0,0,0,0,0.3409,0.3412,0.3564,0.3565,0.3566,0.3656,0.3658,0.3659,0.3669,0.3668,0.3667,0.3665,0.3698,0.37,0.3703,0,0,0,0,0,0,0,0,0,0,0,0,0,0.3489,0.3413,0.3564,0.358,0.3582,0.3656,0.3658,0.366,0.367,0.3668,0.3666,0.3665,0.3697,0.37,0.3703,0.3756,0,0,0.3712,0.3713,0,0,0,0,0,0,0,0,0.3484,0.3495,0.3577,0.3579,0.3581,0.3647,0.3615,0.3688,0.367,0.3639,0.3666,0.3664,0.3675,0.368,0.3706,0.3758,0.3759,0.3712,0.3714,0.3715,0.3716,0,0,0,0,0,0,0,0.3479,0.3491,0.3603,0.3578,0.3581,0.3586,0.3596,0.3629,0.3667,0.3642,0.3642,0.3649,0.3676,0.3703,0.3707,0.376,0.3712,0.3715,0.3716,0.3718,0.3864,0.3866,0,0,0,0,0,0,0.3464,0.3486,0.36,0.3606,0.3525,0.359,0.3601,0.363,0.3668,0.3672,0.365,0.3649,0.3699,0.3703,0.3708,0.3773,0.3715,0.3718,0.372,0.3861,0.3864,0.3866,0,0,0,0,0,0,0.3461,0.3474,0.3597,0.3544,0.356,0.3595,0.3627,0.3633,0.3661,0.3674,0.3677,0.3671,0.3698,0.3703,0.3751,0.3774,0.3719,0.3722,0.3859,0.3862,0.3865,0.3903,0,0,0,0,0,0,0.3457,0.3473,0.3485,0.3544,0.3562,0.3619,0.3629,0.3636,0.3666,0.3665,0.3694,0.3695,0.3697,0.3747,0.3754,0.3777,0.3724,0.3856,0.386,0.3864,0.3899,0.3907,0.3914,0,0,0,0,0,0.3451,0.3468,0.3486,0.3499,0.358,0.3618,0.3628,0.3648,0.3668,0.367,0.3714,0.3694,0.3776,0.3751,0.3759,0.3783,0.3854,0.3859,0.3864,0.3896,0.3906,0.3914,0,0,0,0,0,0,0.3402,0.3473,0.3493,0.353,0.3562,0.3618,0.3625,0.3658,0.37,0.37,0.3728,0.3733,0.3783,0.3787,0.3759,0.3839,0.381,0.3816,0.3832,0.3841,0.3848,0.3842,0.3727,0,0,0,0,0,0.3401,0.3434,0.3492,0.3518,0.3536,0.359,0.3611,0.3627,0.3672,0.3689,0.3725,0.3764,0.3814,0.3827,0.386,0.3908,0.3939,0.3928,0.3936,0.3942,0.3944,0.4024,0.4039,0.3882,0.3882,0.3882,0,0,0.3383,0.343,0.3445,0.3509,0.3541,0.3571,0.3598,0.3622,0.3652,0.3687,0.3744,0.3792,0.3835,0.3888,0.3909,0.3889,0.4009,0.3948,0.3952,0.3952,0.403,0.4046,0.4059,0.3885,0.3885,0.3884,0,0,0.3362,0.3413,0.3429,0.347,0.3515,0.3548,0.3558,0.3623,0.365,0.3714,0.3759,0.383,0.3887,0.3936,0.3967,0.4039,0.405,0.4044,0.4071,0.4149,0.4162,0.4174,0.4254,0.4273,0.4042,0.4042,0.4042,0,0.3341,0.3383,0.3433,0.3469,0.3492,0.3542,0.3557,0.3606,0.368,0.3712,0.372,0.3874,0.3913,0.4007,0.4041,0.4055,0.4101,0.403,0.4158,0.417,0.4181,0.426,0.428,0.4044,0.4044,0.4044,0.4044,0,0.3326,0.3377,0.3391,0.3456,0.3479,0.3503,0.3565,0.3602,0.3649,0.3708,0.3808,0.3895,0.3982,0.4018,0.4058,0.4168,0.4177,0.4161,0.413,0.4199,0.4279,0.4299,0.4048,0.4047,0.4046,0.4046,0,0,0.3269,0.336,0.337,0.3394,0.3476,0.3485,0.3541,0.3599,0.3647,0.3736,0.3811,0.3944,0.4009,0.4052,0.4123,0.4206,0.4351,0.4225,0.4228,0.4296,0.4537,0.4456,0.447,0.4358,0.4362,0.4364,0.4566,0,0.3249,0.3283,0.3341,0.3374,0.34,0.3466,0.3517,0.3578,0.3651,0.374,0.3853,0.3957,0.4017,0.408,0.4178,0.4313,0.4403,0.4298,0.4467,0.4472,0.4383,0.449,0.4325,0.4483,0.4586,0.459,0.4592,0,0.3228,0.326,0.3269,0.3345,0.3358,0.3381,0.3445,0.3502,0.3641,0.3705,0.383,0.3937,0.4113,0.4132,0.4394,0.4327,0.4439,0.4531,0.454,0.446,0.4427,0.4428,0.4516,0.4339,0.4623,0.462,0.4618,0,0.3144,0.3217,0.3204,0.3235,0.3322,0.333,0.3371,0.3486,0.3541,0.3696,0.3762,0.3965,0.4078,0.4256,0.4475,0.4448,0.4739,0.4711,0.4742,0.4738,0.4627,0.4605,0.455,0.4876,0.4876,0.4875,0.4875,0,0.312,0.313,0.3161,0.3173,0.3169,0.3255,0.3287,0.3361,0.3493,0.3572,0.3746,0.386,0.4117,0.4316,0.449,0.4693,0.4756,0.4775,0.4791,0.4636,0.4615,0.4476,0.4376,0.4883,0.4881,0.488,0.4878,0,0.3066,0.3087,0.3087,0.3131,0.3137,0.3132,0.3213,0.3261,0.3391,0.35,0.3556,0.3811,0.4064,0.4309,0.4611,0.4698,0.4768,0.4945,0.4749,0.4737,0.4541,0.445,0.4372,0.4276,0.5005,0.5004,0.5003,0,0.3048,0.3036,0.3023,0.3007,0.3028,0.3042,0.3069,0.3186,0.3249,0.3476,0.3528,0.3796,0.3972,0.4372,0.4605,0.4874,0.4737,0.483,0.4731,0.4523,0.4437,0.4311,0.4227,0.4627,0.4623,0.462,0.4618,0,0.3025,0.2996,0.2987,0.2948,0.2938,0.2935,0.2984,0.3011,0.3173,0.3267,0.3443,0.36,0.398,0.4179,0.4504,0.4665,0.4555,0.4772,0.4617,0.4184,0.3987,0.3903,0.4506,0.4591,0.4594,0.4596,0.4597,0.4599,0.2997,0.2965,0.2934,0.2891,0.2866,0.2843,0.2829,0.2899,0.2965,0.3099,0.331,0.3476,0.3762,0.4198,0.4311,0.4338,0.4391,0.4275,0.4208,0.4123,0.3919,0.4455,0.4502,0.4504,0.4505,0.4507,0.4508,0,0.2967,0.2934,0.2893,0.2823,0.2762,0.2777,0.2784,0.277,0.2799,0.2938,0.3076,0.3296,0.3485,0.3692,0.3856,0.379,0.3722,0.3712,0.3485,0.3455,0.3994,0.3859,0.3692,0.3692,0.3692,0.3693,0.3693,0.3693,0.2957,0.29,0.2865,0.2745,0.269,0.2608,0.259,0.2573,0.263,0.2664,0.2735,0.2898,0.3143,0.3312,0.3287,0.3256,0.3032,0.2963,0.297,0.3298,0.3345,0.3389,0.3239,0.2944,0.2943,0.2358,0.2352,0.2348]},{"header":{"parameterUnit":"m.s-1","parameterCategory":2,"la1":30.2991,"la2":30.254,"lo1":-89.0895,"lo2":-89.0444,"dy":0.0017,"dx":0.0017,"nx":28,"ny":28,"refTime":"2023-07-21T03:00:00:Z","depth":"0","parameterNumber":3,"parameterNumberName":"V-component_of_CURRENTS"},"data":[0,0,0,0,0,0,0,0,0,0,0,0,0,0,0,0,0,0,0,0,0,0,0,0,0,0,0,0,0,0,0,0,0,0,0,0,0,0,0,0,0,0,0,0,0,0,0,0,0,0,0,0,0,0,0,0,0,0,0.1428,0.1427,0,0.1337,0.1336,0.1335,0.1255,0.1254,0.1253,0.1253,0.0992,0.0986,0.098,0,0,0,0,0,0,0,0,0,0,0,0,0,0.1467,0.1467,0.1429,0.1427,0.1426,0.1337,0.1336,0.1335,0.1256,0.1254,0.1253,0.1252,0.0994,0.0987,0.098,0,0,0,0,0,0,0,0,0,0,0,0,0,0.1421,0.1467,0.1429,0.1375,0.137,0.1338,0.1336,0.1335,0.1256,0.1254,0.1253,0.1252,0.0996,0.0988,0.0979,0.0952,0,0,0.0951,0.0947,0,0,0,0,0,0,0,0,0.1424,0.142,0.1384,0.1379,0.1372,0.1306,0.1254,0.1198,0.1256,0.13,0.1252,0.1251,0.1082,0.1066,0.1055,0.094,0.0929,0.095,0.0945,0.0941,0.0938,0,0,0,0,0,0,0,0.1427,0.1423,0.1393,0.1383,0.1376,0.1333,0.1325,0.1244,0.1197,0.1296,0.129,0.1279,0.1077,0.1064,0.1048,0.0925,0.0951,0.0943,0.0937,0.0933,0.0766,0.0767,0,0,0,0,0,0,0.1443,0.1427,0.1396,0.139,0.1394,0.1334,0.1325,0.1329,0.1202,0.1182,0.128,0.1276,0.108,0.1059,0.1038,0.1034,0.0941,0.0933,0.0927,0.0765,0.0767,0.0768,0,0,0,0,0,0,0.1444,0.1442,0.1399,0.1405,0.1396,0.1335,0.1339,0.1328,0.1321,0.1192,0.1169,0.1285,0.1078,0.1051,0.0994,0.1021,0.0928,0.092,0.0764,0.0766,0.0767,0.1001,0,0,0,0,0,0,0.1446,0.1443,0.146,0.1407,0.1396,0.1397,0.134,0.1327,0.1315,0.1309,0.1188,0.1162,0.1075,0.1009,0.0985,0.1007,0.0913,0.0763,0.0765,0.0767,0.0992,0.101,0.1026,0,0,0,0,0,0.1448,0.1481,0.1462,0.1458,0.1419,0.1398,0.139,0.134,0.1318,0.1327,0.1256,0.1166,0.1002,0.1004,0.0975,0.0995,0.0762,0.0764,0.0767,0.0984,0.1007,0.1025,0,0,0,0,0,0,0.1497,0.1474,0.1452,0.1473,0.1443,0.1384,0.1388,0.1358,0.1314,0.1299,0.1187,0.1158,0.1117,0.1022,0.1026,0.0949,0.0863,0.086,0.1038,0.1058,0.1074,0.1091,0.0906,0,0,0,0,0,0.1519,0.1542,0.1499,0.1514,0.1505,0.1452,0.144,0.1404,0.1353,0.1333,0.1271,0.118,0.1104,0.1058,0.0979,0.094,0.0868,0.0928,0.0946,0.0961,0.0954,0.0879,0.089,0.0775,0.0775,0.0775,0,0,0.1532,0.1531,0.1535,0.1527,0.1498,0.1498,0.1442,0.1428,0.1426,0.1308,0.1308,0.1242,0.1108,0.1076,0.1046,0.1,0.0968,0.0964,0.0978,0.0962,0.0883,0.0894,0.0904,0.0777,0.0776,0.0776,0,0,0.1572,0.1578,0.1602,0.1599,0.1573,0.1541,0.1546,0.1511,0.1493,0.148,0.1398,0.1366,0.1255,0.1189,0.1127,0.1183,0.1066,0.1147,0.124,0.1171,0.118,0.1187,0.1175,0.1179,0.1149,0.115,0.115,0,0.1585,0.1624,0.1603,0.163,0.1635,0.157,0.1589,0.1564,0.1523,0.1514,0.1499,0.1395,0.1307,0.1249,0.1278,0.1224,0.1176,0.1185,0.1197,0.1201,0.1204,0.1189,0.119,0.1161,0.116,0.1159,0.1158,0,0.1626,0.1675,0.1694,0.171,0.1709,0.1723,0.1681,0.1679,0.166,0.1639,0.1618,0.1541,0.1471,0.1451,0.1379,0.1359,0.1321,0.124,0.1158,0.1231,0.121,0.1207,0.1178,0.1174,0.117,0.1167,0,0,0.1619,0.1705,0.1714,0.1747,0.1761,0.1751,0.176,0.1743,0.1747,0.1734,0.1753,0.1675,0.1657,0.1586,0.1515,0.1468,0.1491,0.1379,0.137,0.1392,0.1379,0.1347,0.134,0.1409,0.1409,0.1408,0.1381,0,0.1657,0.1729,0.1768,0.1831,0.1861,0.1844,0.1865,0.1839,0.1825,0.1836,0.1769,0.1756,0.1695,0.1685,0.1637,0.1512,0.1481,0.1507,0.1279,0.1274,0.1256,0.1334,0.1298,0.1267,0.1377,0.1376,0.1376,0,0.1677,0.1738,0.1806,0.1901,0.191,0.1934,0.194,0.1959,0.1943,0.1941,0.1928,0.1879,0.1838,0.1769,0.1628,0.1646,0.1534,0.1445,0.1439,0.1314,0.1234,0.1193,0.1256,0.1005,0.137,0.137,0.1371,0,0.1649,0.1764,0.182,0.1851,0.1933,0.1953,0.1983,0.1984,0.2015,0.2011,0.2039,0.1973,0.1952,0.1809,0.1657,0.1631,0.1498,0.1422,0.1299,0.1298,0.1169,0.1156,0.0971,0.131,0.131,0.131,0.131,0,0.1681,0.1736,0.1812,0.185,0.1913,0.1967,0.2032,0.2038,0.2095,0.2146,0.2105,0.2127,0.1952,0.1861,0.1701,0.152,0.1528,0.1334,0.1281,0.1256,0.1252,0.0942,0.0858,0.1309,0.1309,0.1309,0.131,0,0.166,0.1716,0.1787,0.1879,0.1908,0.1944,0.2073,0.2123,0.2174,0.224,0.2251,0.2233,0.2126,0.1959,0.1736,0.1581,0.1284,0.132,0.1343,0.1293,0.0932,0.0865,0.0688,0.0625,0.1186,0.1185,0.1184,0,0.1659,0.169,0.1779,0.1815,0.1869,0.1953,0.2022,0.2127,0.2198,0.2303,0.2335,0.2287,0.2253,0.1979,0.1687,0.1427,0.125,0.1213,0.1135,0.0922,0.0807,0.078,0.0739,0.1087,0.1086,0.1084,0.1083,0,0.1649,0.1664,0.1716,0.1798,0.1868,0.1977,0.209,0.2158,0.229,0.2366,0.2435,0.2431,0.2207,0.1942,0.1615,0.1415,0.1073,0.1176,0.0917,0.0694,0.0687,0.0598,0.1138,0.1072,0.1073,0.1074,0.1074,0.1075,0.1602,0.1631,0.1683,0.1763,0.1864,0.1983,0.2054,0.219,0.2318,0.2442,0.2478,0.2504,0.2143,0.1696,0.1417,0.0851,0.0954,0.0673,0.0613,0.0608,0.0524,0.1077,0.0961,0.0962,0.0962,0.0963,0.0963,0,0.1514,0.1575,0.1652,0.1751,0.1859,0.1931,0.2088,0.217,0.2298,0.2439,0.2516,0.234,0.1894,0.1423,0.0698,0.0328,0.0238,0.0148,0.0058,0.0046,0.0473,0.0437,0.0246,0.0246,0.0247,0.0247,0.0247,0.0247,0.1464,0.1507,0.1574,0.1712,0.1805,0.1928,0.2004,0.2143,0.2261,0.2374,0.2392,0.2418,0.2031,0.0783,-0.0084,-0.0245,-0.0471,-0.046,-0.0549,-0.0342,-0.03,-0.026,-0.0321,-0.0667,-0.0668,-0.0959,-0.0962,-0.0965]}],[{"header":{"parameterUnit":"m.s-1","parameterCategory":2,"la1":30.2991,"la2":30.254,"lo1":-89.0895,"lo2":-89.0444,"dy":0.0017,"dx":0.0017,"nx":28,"ny":28,"refTime":"2023-07-21T03:00:00:Z","depth":"2","parameterNumber":2,"parameterNumberName":"U-component_of_CURRENTS"},"data":[0,0,0,0,0,0,0,0,0,0,0,0,0,0,0,0,0,0,0,0,0,0,0,0,0,0,0,0,0,0,0,0,0,0,0,0,0,0,0,0,0,0,0,0,0,0,0,0,0,0,0,0,0,0,0,0,0,0,0.2437,0.2441,0,0.2674,0.2676,0.2677,0.2749,0.2749,0.2749,0.275,0.2948,0.2953,0.2958,0,0,0,0,0,0,0,0,0,0,0,0,0,0.2281,0.228,0.2437,0.2441,0.2446,0.2674,0.2676,0.2678,0.2749,0.2749,0.2749,0.275,0.2946,0.2952,0.2959,0,0,0,0,0,0,0,0,0,0,0,0,0,0.2401,0.228,0.2436,0.252,0.2531,0.2674,0.2676,0.2678,0.2749,0.2749,0.2749,0.275,0.2944,0.2952,0.2959,0.3001,0,0,0.2983,0.2986,0,0,0,0,0,0,0,0,0.2394,0.2405,0.2503,0.2515,0.2527,0.2696,0.2695,0.279,0.2749,0.265,0.275,0.275,0.287,0.2884,0.2907,0.301,0.3019,0.2984,0.2988,0.2992,0.2994,0,0,0,0,0,0,0,0.2385,0.2397,0.2515,0.2508,0.2523,0.2628,0.2641,0.2713,0.2743,0.2659,0.2668,0.2719,0.2874,0.2899,0.2912,0.3022,0.2983,0.299,0.2995,0.2998,0.3002,0.2998,0,0,0,0,0,0,0.2374,0.2387,0.2508,0.2524,0.2477,0.263,0.2645,0.2629,0.2743,0.2766,0.2718,0.2722,0.2886,0.2903,0.2919,0.3004,0.2991,0.2999,0.3003,0.3006,0.3001,0.2996,0,0,0,0,0,0,0.2368,0.2379,0.2499,0.2478,0.2502,0.2632,0.2615,0.2634,0.2697,0.2792,0.281,0.2767,0.2887,0.2909,0.2937,0.3011,0.3002,0.3009,0.3012,0.3005,0.2998,0.3155,0,0,0,0,0,0,0.2361,0.2373,0.2348,0.2474,0.2504,0.257,0.2617,0.2639,0.2733,0.2739,0.284,0.2856,0.2888,0.2924,0.2944,0.3021,0.3015,0.3017,0.3008,0.3,0.3155,0.3154,0.3153,0,0,0,0,0,0.2353,0.2366,0.2343,0.236,0.2463,0.2571,0.2592,0.268,0.2735,0.2741,0.2777,0.2855,0.2883,0.2928,0.2952,0.3034,0.3021,0.3011,0.3001,0.3156,0.3155,0.3153,0,0,0,0,0,0,0.2292,0.2379,0.2357,0.2387,0.245,0.2588,0.2649,0.2702,0.2744,0.2778,0.2832,0.2848,0.2887,0.2892,0.294,0.2977,0.2953,0.2948,0.3062,0.3062,0.3061,0.3043,0.3021,0,0,0,0,0,0.2257,0.2271,0.2358,0.2371,0.2421,0.2528,0.2589,0.2655,0.273,0.2755,0.279,0.282,0.2858,0.2907,0.2904,0.2974,0.2946,0.3009,0.3008,0.3009,0.299,0.3034,0.3041,0.2963,0.2963,0.2963,0,0,0.2265,0.2289,0.2314,0.2357,0.2433,0.2498,0.2563,0.2689,0.2727,0.2772,0.2803,0.2826,0.2855,0.2895,0.2916,0.2932,0.2993,0.2996,0.3,0.2979,0.3025,0.3035,0.3043,0.2956,0.2957,0.2958,0,0,0.2248,0.2283,0.2272,0.2336,0.2439,0.2524,0.2562,0.2677,0.271,0.2761,0.2776,0.2813,0.2875,0.2896,0.2931,0.2913,0.2966,0.2918,0.297,0.3016,0.3027,0.3036,0.2957,0.2958,0.2953,0.2953,0.2953,0,0.2237,0.2216,0.2293,0.2303,0.2368,0.2532,0.2561,0.2647,0.2729,0.2748,0.2772,0.281,0.2877,0.2929,0.2936,0.2935,0.292,0.302,0.3032,0.304,0.3048,0.2964,0.2964,0.2959,0.2958,0.2958,0.2957,0,0.2211,0.2209,0.225,0.2283,0.2339,0.2449,0.2562,0.2646,0.2738,0.2775,0.2809,0.2846,0.2885,0.2913,0.2971,0.3033,0.2986,0.3025,0.3081,0.3068,0.2975,0.2973,0.2968,0.2966,0.2964,0.2962,0,0,0.2199,0.2214,0.2243,0.2226,0.2363,0.243,0.2538,0.2642,0.2738,0.2779,0.2798,0.2896,0.293,0.2955,0.3001,0.3058,0.3131,0.3099,0.3099,0.3094,0.3157,0.2988,0.2967,0.3228,0.3229,0.323,0.3057,0,0.2163,0.2122,0.2165,0.2216,0.2223,0.2411,0.2466,0.2585,0.2713,0.2772,0.2833,0.2871,0.2946,0.3007,0.3078,0.31,0.3137,0.3167,0.3098,0.3092,0.3013,0.2964,0.284,0.2666,0.3054,0.3053,0.3053,0,0.2167,0.2098,0.2077,0.2124,0.216,0.2248,0.2446,0.2501,0.2656,0.2733,0.2819,0.2876,0.2943,0.3017,0.3069,0.31,0.3149,0.3151,0.3147,0.2935,0.292,0.2738,0.2645,0.3047,0.3048,0.3048,0.3049,0,0.2088,0.2114,0.2075,0.2108,0.2159,0.2243,0.2327,0.2493,0.2543,0.2708,0.276,0.285,0.2887,0.2963,0.3037,0.3097,0.3029,0.3112,0.2956,0.2939,0.2779,0.2746,0.315,0.3151,0.3151,0.3151,0.3152,0,0.2036,0.2028,0.2074,0.2045,0.2116,0.2144,0.2253,0.2418,0.2503,0.2526,0.2707,0.2735,0.2907,0.2919,0.2981,0.2907,0.3,0.2915,0.2898,0.281,0.2784,0.3084,0.3079,0.3145,0.3146,0.3148,0.3149,0,0.1942,0.1939,0.1949,0.2012,0.2069,0.2121,0.2237,0.2289,0.2395,0.2437,0.2478,0.2648,0.2691,0.2756,0.2835,0.2804,0.2769,0.2732,0.2542,0.2506,0.2651,0.2654,0.2528,0.2521,0.2515,0.251,0.2506,0,0.189,0.1861,0.1984,0.2013,0.2063,0.2129,0.2167,0.2266,0.2281,0.2362,0.2333,0.244,0.2485,0.2427,0.2452,0.2416,0.2588,0.2246,0.2355,0.2597,0.2594,0.2607,0.2618,0.217,0.2164,0.2158,0.2154,0,0.1792,0.1885,0.1858,0.1957,0.2029,0.2058,0.2101,0.209,0.2129,0.2171,0.2194,0.2232,0.2225,0.2175,0.2111,0.2082,0.2242,0.2129,0.2459,0.2347,0.2248,0.2248,0.2274,0.2106,0.2111,0.2114,0.2117,0.2119,0.1815,0.182,0.1853,0.1952,0.1994,0.1977,0.1968,0.1959,0.1937,0.1944,0.1976,0.1979,0.1968,0.1848,0.1772,0.1761,0.1907,0.1884,0.1907,0.1935,0.1925,0.1822,0.1589,0.1591,0.1593,0.1594,0.1595,0,0.1841,0.1826,0.1859,0.1896,0.1893,0.1984,0.1924,0.1839,0.1807,0.1812,0.1831,0.1583,0.1531,0.1581,0.1505,0.1435,0.1495,0.1396,0.1527,0.1572,0.1613,0.1595,0.1167,0.1166,0.1165,0.1164,0,0,0.1804,0.1789,0.1775,0.1782,0.1856,0.1834,0.1809,0.1709,0.1671,0.1509,0.1514,0.1538,0.156,0.1368,0.1298,0.1277,0.1434,0.1221,0.1563,0.1769,0.181,0.1879,0.1896,0,0,0,0,0]},{"header":{"parameterUnit":"m.s-1","parameterCategory":2,"la1":30.2991,"la2":30.254,"lo1":-89.0895,"lo2":-89.0444,"dy":0.0017,"dx":0.0017,"nx":28,"ny":28,"refTime":"2023-07-21T03:00:00:Z","depth":"2","parameterNumber":3,"parameterNumberName":"V-component_of_CURRENTS"},"data":[0,0,0,0,0,0,0,0,0,0,0,0,0,0,0,0,0,0,0,0,0,0,0,0,0,0,0,0,0,0,0,0,0,0,0,0,0,0,0,0,0,0,0,0,0,0,0,0,0,0,0,0,0,0,0,0,0,0,0.0048,0.0047,0,-0.007,-0.0072,-0.0074,-0.0109,-0.0108,-0.0107,-0.0106,-0.0043,-0.0043,-0.0042,0,0,0,0,0,0,0,0,0,0,0,0,0,0.0072,0.0072,0.0048,0.0047,0.0046,-0.007,-0.0072,-0.0074,-0.011,-0.0108,-0.0107,-0.0105,-0.0043,-0.0043,-0.0042,0,0,0,0,0,0,0,0,0,0,0,0,0,0.0013,0.0072,0.0048,0.0019,0.0016,-0.0069,-0.0072,-0.0075,-0.011,-0.0108,-0.0106,-0.0105,-0.0043,-0.0043,-0.0042,-0.0073,0,0,-0.0039,-0.0039,0,0,0,0,0,0,0,0,0.0016,0.0011,0.0024,0.0021,0.0018,-0.0067,-0.004,-0.0063,-0.011,-0.0069,-0.0106,-0.0104,-0.0031,-0.0031,-0.007,-0.007,-0.0068,-0.0039,-0.0039,-0.0038,-0.0038,0,0,0,0,0,0,0,0.0021,0.0015,-0.0006,0.0023,0.0019,-0.0045,-0.0051,-0.0047,-0.0061,-0.0073,-0.0074,-0.0077,-0.0033,-0.0071,-0.0068,-0.0067,-0.0039,-0.0039,-0.0038,-0.0038,-0.0228,-0.0233,0,0,0,0,0,0,0.0056,0.002,-0.0002,-0.0009,0.0029,-0.0046,-0.0053,-0.0047,-0.0065,-0.0065,-0.0078,-0.0078,-0.0073,-0.0069,-0.0065,-0.0007,-0.0038,-0.0038,-0.0037,-0.0223,-0.0229,-0.0235,0,0,0,0,0,0,0.0057,0.0055,0.0003,0.0007,-0.0003,-0.0046,-0.0042,-0.005,-0.0033,-0.007,-0.0068,-0.0044,-0.0072,-0.0066,-0.002,-0.0007,-0.0037,-0.0037,-0.0216,-0.0225,-0.0232,0.0051,0,0,0,0,0,0,0.0058,0.0056,0.005,0.001,-0.0001,-0.0021,-0.0043,-0.0054,-0.0038,-0.0037,-0.004,-0.0037,-0.007,-0.0021,-0.0019,-0.0007,-0.0036,-0.0209,-0.022,-0.023,0.0048,0.0053,0.0057,0,0,0,0,0,0.0059,0.0058,0.005,0.0047,-0.0001,-0.002,-0.0033,-0.0064,-0.0037,-0.0039,-0.0024,-0.0034,-0.0092,-0.0019,-0.0017,-0.0004,-0.0204,-0.0217,-0.0229,0.0046,0.0052,0.0057,0,0,0,0,0,0,0.0067,0.0054,0.0044,0.004,0.0023,-0.0022,-0.002,-0.0027,-0.0024,0.0017,-0.0016,-0.0013,0.0015,-0.0073,0.0006,-0.0129,-0.0187,-0.0199,0.002,0.0025,0.003,-0.0008,-0.0035,0,0,0,0,0,0.0066,0.0064,0.0046,0.0043,0.0058,0.0033,0.0022,0.0024,0.0027,0.003,-0.001,-0.0057,-0.0057,-0.006,-0.0107,-0.0119,-0.0201,-0.0165,-0.0159,-0.0153,-0.0207,-0.0223,-0.0218,-0.0276,-0.0276,-0.0276,0,0,0.0109,0.0061,0.0089,0.0043,0.0044,0.007,0.0033,0.0066,0.0057,0.0043,0.0012,0.0004,-0.0056,-0.0076,-0.0086,-0.0124,-0.0197,-0.0169,-0.0159,-0.022,-0.0235,-0.0227,-0.022,-0.0285,-0.0283,-0.0282,0,0,0.0108,0.013,0.0109,0.0135,0.0129,0.0121,0.0156,0.0124,0.0084,0.0086,0.006,0.0066,-0.0002,-0.0046,-0.0059,-0.008,-0.0146,-0.0145,-0.0138,-0.0147,-0.0138,-0.0131,-0.0239,-0.0244,-0.0164,-0.0164,-0.0163,0,0.0147,0.0106,0.0105,0.0103,0.0125,0.0171,0.0189,0.0178,0.0136,0.0113,0.0101,-0.0023,0.0006,-0.0029,-0.0027,-0.0048,-0.0114,-0.0089,-0.012,-0.0115,-0.0113,-0.0226,-0.0234,-0.0152,-0.0153,-0.0154,-0.0156,0,0.0161,0.014,0.0161,0.017,0.0179,0.0243,0.0247,0.0287,0.0273,0.02,0.0127,0.0075,0.0016,-0.001,0.0029,-0.0004,-0.0076,-0.0055,-0.0073,-0.0085,-0.0211,-0.0224,-0.0134,-0.0139,-0.0142,-0.0145,0,0,0.0254,0.0173,0.0208,0.0196,0.0241,0.0282,0.0336,0.0337,0.0407,0.0261,0.0198,0.0169,0.0112,0.0073,0.0033,-0.0017,0.0034,-0.0017,-0.0023,-0.0027,-0.0063,-0.0059,-0.0075,0.0096,0.0095,0.0095,-0.0155,0,0.0269,0.0235,0.0193,0.0258,0.0258,0.0365,0.0385,0.0423,0.0421,0.0385,0.0242,0.0196,0.0139,0.0165,0.0104,0.0066,0.0006,0.0091,-0.0148,-0.016,-0.0063,-0.0085,-0.0037,-0.0249,-0.0169,-0.0172,-0.0173,0,0.0336,0.0248,0.0251,0.0245,0.0279,0.0372,0.0533,0.0516,0.0522,0.0519,0.0422,0.0326,0.0214,0.0193,0.0004,0.0069,0.0026,-0.0067,-0.0075,-0.019,-0.0178,-0.0241,-0.0278,-0.0197,-0.0196,-0.0194,-0.0192,0,0.0375,0.0356,0.033,0.0369,0.0361,0.0462,0.0507,0.0577,0.0551,0.0591,0.0593,0.0421,0.0343,0.0209,0.0056,0.0089,-0.0203,-0.0148,-0.0263,-0.0268,-0.035,-0.0358,-0.0271,-0.027,-0.027,-0.0269,-0.0268,0,0.0395,0.0403,0.0405,0.0411,0.0524,0.0477,0.0582,0.0719,0.0676,0.0642,0.0608,0.0538,0.0368,0.0181,0.0043,-0.0195,-0.0189,-0.0305,-0.0319,-0.0262,-0.0259,-0.0319,-0.0321,-0.0279,-0.0276,-0.0275,-0.0273,0,0.0413,0.0381,0.0401,0.0451,0.0521,0.0612,0.067,0.0716,0.0719,0.0685,0.0689,0.0615,0.0458,0.0181,-0.0023,-0.0182,-0.0399,-0.0471,-0.0452,-0.0455,-0.0473,-0.046,-0.0619,-0.062,-0.0622,-0.0623,-0.0624,0,0.0397,0.0381,0.0527,0.0601,0.0646,0.0738,0.08,0.0805,0.0792,0.0714,0.067,0.0552,0.0481,0.0065,-0.0151,-0.0456,-0.0467,-0.0602,-0.0493,-0.0506,-0.0503,-0.0488,-0.0474,-0.0532,-0.0532,-0.0532,-0.0532,0,0.0342,0.0448,0.0461,0.0651,0.0779,0.0852,0.0912,0.0908,0.083,0.084,0.0801,0.0732,0.0405,0.0159,-0.0232,-0.0413,-0.0539,-0.0608,-0.0626,-0.0413,-0.0432,-0.0426,-0.0414,-0.0533,-0.0533,-0.0533,-0.0533,-0.0533,0.0382,0.0448,0.054,0.0723,0.0858,0.0952,0.1002,0.1012,0.1,0.0981,0.0863,0.0781,0.0426,-0.0012,-0.0298,-0.0519,-0.0525,-0.0617,-0.0613,-0.0611,-0.0517,-0.0531,-0.0644,-0.0644,-0.0645,-0.0645,-0.0645,0,0.0433,0.0484,0.0612,0.0784,0.0919,0.102,0.1067,0.1072,0.1135,0.1107,0.1092,0.0679,0.0373,0.0041,-0.0272,-0.0527,-0.0508,-0.0589,-0.0522,-0.0522,-0.0522,-0.0419,-0.0524,-0.0523,-0.0523,-0.0523,0,0,0.0424,0.0505,0.0553,0.0773,0.0944,0.11,0.115,0.1234,0.1235,0.1178,0.1117,0.0905,0.0436,0.019,-0.016,-0.0291,-0.0319,-0.0308,-0.0389,-0.0268,-0.0262,-0.0538,-0.038,0,0,0,0,0]}],[{"header":{"parameterUnit":"m.s-1","parameterCategory":2,"la1":30.2991,"la2":30.254,"lo1":-89.0895,"lo2":-89.0444,"dy":0.0017,"dx":0.0017,"nx":28,"ny":28,"refTime":"2023-07-21T03:00:00:Z","depth":"4","parameterNumber":2,"parameterNumberName":"U-component_of_CURRENTS"},"data":[0,0,0,0,0,0,0,0,0,0,0,0,0,0,0,0,0,0,0,0,0,0,0,0,0,0,0,0,0,0,0,0,0,0,0,0,0,0,0,0,0,0,0,0,0,0,0,0,0,0,0,0,0,0,0,0,0,0,0.0325,0.0325,0,0.0346,0.0347,0.0347,0.0389,0.039,0.039,0.039,0.0368,0.0367,0.0366,0,0,0,0,0,0,0,0,0,0,0,0,0,0.0328,0.0328,0.0325,0.0325,0.0324,0.0346,0.0347,0.0347,0.0389,0.039,0.039,0.0391,0.0368,0.0367,0.0366,0,0,0,0,0,0,0,0,0,0,0,0,0,0.0341,0.0329,0.0325,0.0344,0.0345,0.0346,0.0347,0.0348,0.0389,0.039,0.039,0.0391,0.0368,0.0367,0.0366,0.0348,0,0,0.0362,0.0361,0,0,0,0,0,0,0,0,0.034,0.0342,0.0341,0.0342,0.0344,0.0361,0.0339,0.0343,0.0389,0.0378,0.039,0.0391,0.0357,0.0357,0.0368,0.0346,0.0345,0.0362,0.0361,0.036,0.036,0,0,0,0,0,0,0,0.0339,0.0341,0.0339,0.0341,0.0342,0.0353,0.0356,0.0341,0.0368,0.0379,0.0381,0.0374,0.0359,0.037,0.0368,0.0345,0.0362,0.036,0.036,0.0359,0.0342,0.0342,0,0,0,0,0,0,0.0325,0.034,0.0338,0.0339,0.0337,0.0352,0.0356,0.0359,0.037,0.037,0.0374,0.0376,0.0372,0.0369,0.0367,0.0389,0.036,0.0359,0.0358,0.0341,0.0342,0.0342,0,0,0,0,0,0,0.0325,0.0325,0.0337,0.0335,0.0337,0.0351,0.0355,0.0359,0.039,0.0365,0.0366,0.0402,0.0372,0.0369,0.0364,0.0387,0.0358,0.0357,0.0341,0.0342,0.0342,0.0405,0,0,0,0,0,0,0.0325,0.0325,0.0341,0.0334,0.0336,0.035,0.0354,0.0359,0.0381,0.0385,0.0388,0.0386,0.0372,0.0366,0.0363,0.0385,0.0356,0.0341,0.0341,0.0342,0.0403,0.0408,0.0413,0,0,0,0,0,0.0325,0.0336,0.0341,0.0342,0.0351,0.035,0.0353,0.0368,0.0382,0.0399,0.0395,0.0387,0.0368,0.0365,0.0361,0.0383,0.034,0.0341,0.0342,0.0401,0.0407,0.0412,0,0,0,0,0,0,0.0334,0.0341,0.0347,0.0357,0.0359,0.0355,0.0377,0.038,0.0394,0.0406,0.0387,0.0384,0.0389,0.0372,0.0369,0.0379,0.0354,0.0354,0.0401,0.0406,0.0411,0.0425,0.0355,0,0,0,0,0,0.0343,0.0361,0.0357,0.0365,0.0376,0.0382,0.039,0.0397,0.0396,0.0407,0.0411,0.0404,0.0386,0.0386,0.0373,0.0376,0.0361,0.0387,0.0392,0.0397,0.0404,0.0389,0.0393,0.0345,0.0345,0.0345,0,0,0.0339,0.035,0.0356,0.0369,0.0383,0.0399,0.0392,0.041,0.0421,0.0398,0.0436,0.0422,0.0389,0.0395,0.0396,0.0387,0.0405,0.0398,0.0402,0.0407,0.039,0.0395,0.0399,0.0345,0.0345,0.0345,0,0,0.0338,0.0365,0.0382,0.0396,0.0416,0.0424,0.0433,0.045,0.0466,0.0481,0.0464,0.0462,0.0458,0.0437,0.042,0.044,0.0428,0.0445,0.0486,0.0471,0.0475,0.0479,0.048,0.0483,0.0451,0.0451,0.0451,0,0.0341,0.036,0.0383,0.0406,0.0419,0.0439,0.0454,0.0472,0.0484,0.049,0.0503,0.0495,0.0474,0.0455,0.047,0.0453,0.0451,0.0469,0.0479,0.0482,0.0484,0.0484,0.0487,0.0454,0.0454,0.0454,0.0453,0,0.0344,0.0376,0.0391,0.0434,0.045,0.0471,0.0488,0.0519,0.0546,0.0552,0.0563,0.0546,0.0538,0.0535,0.0511,0.0517,0.0513,0.0485,0.0468,0.0493,0.0492,0.0493,0.0459,0.0458,0.0457,0.0456,0,0,0.0314,0.0382,0.0391,0.042,0.0471,0.0479,0.0515,0.0536,0.0558,0.059,0.0608,0.0594,0.0603,0.0584,0.0561,0.0558,0.0578,0.0544,0.0542,0.0553,0.0568,0.0581,0.0583,0.0559,0.0559,0.056,0.0565,0,0.0316,0.0362,0.0394,0.044,0.0469,0.0507,0.0534,0.0557,0.0585,0.0617,0.061,0.0622,0.0613,0.0619,0.0617,0.0584,0.0583,0.058,0.0535,0.0534,0.0548,0.0586,0.0561,0.0566,0.0566,0.0566,0.0567,0,0.0306,0.0346,0.0389,0.0453,0.047,0.0505,0.0556,0.0578,0.0617,0.0637,0.066,0.0662,0.067,0.0657,0.0639,0.0644,0.0617,0.0595,0.0594,0.0585,0.055,0.053,0.0569,0.0569,0.0568,0.0568,0.0568,0,0.0263,0.0339,0.0377,0.0401,0.0477,0.0509,0.055,0.0591,0.0614,0.0658,0.0688,0.0694,0.071,0.0686,0.0664,0.0655,0.0644,0.0611,0.0595,0.0596,0.0553,0.0548,0.059,0.059,0.059,0.059,0.059,0,0.0248,0.0278,0.0375,0.0397,0.045,0.0503,0.0555,0.059,0.0645,0.0668,0.0705,0.0714,0.0722,0.0718,0.0682,0.0663,0.0657,0.0618,0.0601,0.058,0.0579,0.0554,0.055,0.059,0.059,0.059,0.059,0,0.0188,0.0252,0.03,0.0396,0.0433,0.047,0.0567,0.0595,0.0659,0.0694,0.0714,0.0746,0.0749,0.075,0.071,0.0692,0.0656,0.0638,0.0644,0.0624,0.0614,0.0613,0.0632,0.0632,0.0633,0.0633,0.0634,0,0.0163,0.0184,0.0287,0.0328,0.0384,0.0459,0.0505,0.0589,0.0615,0.0689,0.069,0.0734,0.0744,0.0716,0.071,0.0684,0.0659,0.0658,0.0623,0.0638,0.062,0.0618,0.0616,0.0635,0.0635,0.0635,0.0635,0,0.0108,0.0147,0.0189,0.0279,0.0348,0.0409,0.0485,0.0501,0.0584,0.0652,0.0667,0.0688,0.0701,0.0693,0.0704,0.0661,0.0676,0.0663,0.0661,0.0627,0.0641,0.0622,0.062,0.0637,0.0636,0.0636,0.0636,0,0.0063,0.0076,0.0145,0.0222,0.0302,0.035,0.0393,0.045,0.0497,0.0591,0.058,0.0626,0.0672,0.0678,0.066,0.0669,0.0649,0.0627,0.0626,0.0625,0.0624,0.0641,0.0635,0,0,0,0,0,0.0018,0.0033,0.0089,0.0174,0.0252,0.0304,0.0377,0.0418,0.0497,0.05,0.0553,0.056,0.0594,0.0603,0.0608,0.0643,0.0637,0.0649,0.0608,0.0646,0.0644,0.0647,0,0,0,0,0,0,-0.0008,0.0024,0.0061,0.013,0.018,0.0258,0.0299,0.0347,0.0358,0.0439,0.0446,0.0541,0.0557,0.058,0.0596,0.0607,0.0577,0.0692,0.0691,0.0647,0.0645,0.0644,0.0646,0,0,0,0,0]},{"header":{"parameterUnit":"m.s-1","parameterCategory":2,"la1":30.2991,"la2":30.254,"lo1":-89.0895,"lo2":-89.0444,"dy":0.0017,"dx":0.0017,"nx":28,"ny":28,"refTime":"2023-07-21T03:00:00:Z","depth":"4","parameterNumber":3,"parameterNumberName":"V-component_of_CURRENTS"},"data":[0,0,0,0,0,0,0,0,0,0,0,0,0,0,0,0,0,0,0,0,0,0,0,0,0,0,0,0,0,0,0,0,0,0,0,0,0,0,0,0,0,0,0,0,0,0,0,0,0,0,0,0,0,0,0,0,0,0,-0.0241,-0.0241,0,-0.0289,-0.029,-0.029,-0.0379,-0.038,-0.0382,-0.0383,-0.052,-0.0522,-0.0525,0,0,0,0,0,0,0,0,0,0,0,0,0,-0.0239,-0.0239,-0.0241,-0.0241,-0.0241,-0.0289,-0.029,-0.0291,-0.0379,-0.038,-0.0382,-0.0384,-0.0519,-0.0522,-0.0525,0,0,0,0,0,0,0,0,0,0,0,0,0,-0.0262,-0.0239,-0.0241,-0.0288,-0.0293,-0.0288,-0.029,-0.0291,-0.0378,-0.038,-0.0383,-0.0384,-0.0518,-0.0522,-0.0525,-0.0506,0,0,-0.0536,-0.0538,0,0,0,0,0,0,0,0,-0.0261,-0.0263,-0.0281,-0.0285,-0.029,-0.0327,-0.0339,-0.0366,-0.0378,-0.035,-0.0383,-0.0385,-0.046,-0.0468,-0.0477,-0.0512,-0.0518,-0.0537,-0.0539,-0.054,-0.0541,0,0,0,0,0,0,0,-0.0259,-0.0261,-0.0263,-0.0281,-0.0287,-0.0312,-0.0318,-0.0345,-0.0397,-0.0352,-0.0358,-0.0357,-0.0464,-0.0473,-0.0481,-0.052,-0.0536,-0.054,-0.0542,-0.0543,-0.065,-0.0651,0,0,0,0,0,0,-0.0243,-0.0259,-0.0262,-0.0264,-0.0276,-0.031,-0.0317,-0.0316,-0.0395,-0.0407,-0.0355,-0.0361,-0.0466,-0.0476,-0.0486,-0.0573,-0.054,-0.0543,-0.0546,-0.0649,-0.065,-0.0651,0,0,0,0,0,0,-0.0242,-0.0242,-0.026,-0.026,-0.0264,-0.0307,-0.0306,-0.0316,-0.0362,-0.0395,-0.0411,-0.0396,-0.0468,-0.0481,-0.0542,-0.0575,-0.0545,-0.0548,-0.0648,-0.0649,-0.065,-0.068,0,0,0,0,0,0,-0.0242,-0.0242,-0.0238,-0.0259,-0.0263,-0.0273,-0.0304,-0.0315,-0.0354,-0.0364,-0.0434,-0.0447,-0.047,-0.0537,-0.0546,-0.058,-0.0551,-0.0647,-0.0649,-0.065,-0.0678,-0.0682,-0.0685,0,0,0,0,0,-0.0242,-0.0233,-0.0237,-0.0238,-0.0255,-0.0272,-0.0278,-0.0318,-0.0354,-0.037,-0.0427,-0.0447,-0.0552,-0.054,-0.0551,-0.0586,-0.0647,-0.0648,-0.065,-0.0676,-0.0681,-0.0685,0,0,0,0,0,0,-0.0244,-0.0241,-0.0247,-0.0241,-0.0259,-0.0287,-0.0304,-0.0332,-0.0387,-0.0414,-0.0456,-0.0472,-0.0538,-0.0551,-0.0537,-0.0618,-0.0602,-0.0606,-0.0618,-0.0623,-0.0627,-0.0612,-0.0554,0,0,0,0,0,-0.0233,-0.0226,-0.0234,-0.0235,-0.0245,-0.028,-0.0295,-0.0325,-0.0369,-0.0398,-0.0454,-0.0506,-0.0542,-0.0576,-0.061,-0.0654,-0.0635,-0.0682,-0.0685,-0.0688,-0.0682,-0.0676,-0.0678,-0.0656,-0.0656,-0.0656,0,0,-0.0243,-0.0233,-0.0236,-0.0234,-0.0258,-0.0274,-0.0298,-0.0333,-0.0357,-0.0402,-0.0478,-0.0524,-0.0556,-0.0609,-0.064,-0.0633,-0.0684,-0.069,-0.0693,-0.0685,-0.0678,-0.068,-0.0682,-0.0657,-0.0657,-0.0657,0,0,-0.0244,-0.0246,-0.0238,-0.0251,-0.0271,-0.0289,-0.0305,-0.0355,-0.0389,-0.0457,-0.0489,-0.0547,-0.0632,-0.0644,-0.0662,-0.0699,-0.07,-0.0728,-0.0742,-0.0737,-0.0738,-0.0739,-0.0712,-0.071,-0.0733,-0.0733,-0.0733,0,-0.0249,-0.024,-0.0244,-0.0244,-0.0255,-0.03,-0.0312,-0.0345,-0.0415,-0.0434,-0.0495,-0.0599,-0.064,-0.0661,-0.0694,-0.0707,-0.0703,-0.0726,-0.074,-0.0741,-0.0742,-0.0713,-0.0711,-0.0734,-0.0734,-0.0734,-0.0734,0,-0.0248,-0.0248,-0.0255,-0.0261,-0.0272,-0.0299,-0.0328,-0.0375,-0.0445,-0.0473,-0.0545,-0.0609,-0.0668,-0.0696,-0.0725,-0.0745,-0.0739,-0.0743,-0.0728,-0.0746,-0.0714,-0.0712,-0.0737,-0.0736,-0.0736,-0.0735,0,0,-0.0249,-0.0248,-0.0256,-0.0252,-0.0286,-0.0294,-0.0337,-0.0364,-0.0393,-0.049,-0.0523,-0.0618,-0.0665,-0.0686,-0.072,-0.0736,-0.0751,-0.0762,-0.0761,-0.0729,-0.0735,-0.0721,-0.0716,-0.0772,-0.0772,-0.0772,-0.0708,0,-0.0252,-0.0237,-0.0244,-0.0259,-0.0257,-0.0302,-0.0328,-0.0361,-0.0422,-0.047,-0.0527,-0.0588,-0.065,-0.0705,-0.0727,-0.0745,-0.0748,-0.0767,-0.0725,-0.0723,-0.0705,-0.0713,-0.0771,-0.0706,-0.0705,-0.0704,-0.0704,0,-0.025,-0.0232,-0.0236,-0.0232,-0.024,-0.0277,-0.0319,-0.0346,-0.04,-0.0447,-0.0512,-0.0563,-0.0609,-0.0668,-0.0695,-0.0715,-0.0733,-0.0743,-0.074,-0.0713,-0.0704,-0.0686,-0.0699,-0.0699,-0.0699,-0.07,-0.07,0,-0.0224,-0.0226,-0.0223,-0.0232,-0.0248,-0.0283,-0.0315,-0.0362,-0.037,-0.0444,-0.0467,-0.0527,-0.0572,-0.0608,-0.0664,-0.0691,-0.0671,-0.0694,-0.0678,-0.0676,-0.0693,-0.0693,-0.0694,-0.0694,-0.0694,-0.0694,-0.0695,0,-0.021,-0.021,-0.023,-0.0234,-0.0251,-0.0276,-0.0314,-0.0352,-0.0388,-0.0374,-0.0465,-0.0468,-0.0571,-0.058,-0.0627,-0.064,-0.0637,-0.0673,-0.0662,-0.0706,-0.0708,-0.069,-0.0691,-0.0692,-0.0693,-0.0693,-0.0693,0,-0.0193,-0.0201,-0.0195,-0.0225,-0.0243,-0.0269,-0.0311,-0.0319,-0.0369,-0.0357,-0.038,-0.0425,-0.0459,-0.0515,-0.0556,-0.0583,-0.0597,-0.0594,-0.0612,-0.0604,-0.0611,-0.0614,-0.0572,-0.0571,-0.057,-0.057,-0.0569,0,-0.0182,-0.0181,-0.0196,-0.0201,-0.0236,-0.0276,-0.0288,-0.0326,-0.0311,-0.0311,-0.0278,-0.0327,-0.0362,-0.0386,-0.0469,-0.0525,-0.0546,-0.0539,-0.0614,-0.0606,-0.06,-0.0604,-0.0608,-0.0568,-0.0568,-0.0567,-0.0567,0,-0.0166,-0.0186,-0.0182,-0.019,-0.0213,-0.021,-0.0231,-0.0207,-0.0216,-0.0232,-0.0202,-0.0253,-0.0274,-0.0357,-0.0408,-0.045,-0.0545,-0.0532,-0.0535,-0.0605,-0.0601,-0.0596,-0.0601,-0.0564,-0.0565,-0.0565,-0.0565,0,-0.0169,-0.0167,-0.0169,-0.0178,-0.0183,-0.0162,-0.017,-0.0151,-0.0143,-0.0131,-0.011,-0.0173,-0.0221,-0.0312,-0.0343,-0.0406,-0.044,-0.0462,-0.0469,-0.0473,-0.0488,-0.047,-0.0377,0,0,0,0,0,-0.0164,-0.0154,-0.0152,-0.0149,-0.0148,-0.0156,-0.0124,-0.0121,-0.0103,-0.0068,-0.0097,-0.0121,-0.0211,-0.0252,-0.0313,-0.0342,-0.0454,-0.0414,-0.0483,-0.0549,-0.0552,-0.0588,0,0,0,0,0,0,-0.0156,-0.0149,-0.0141,-0.0129,-0.013,-0.012,-0.0102,-0.0083,-0.0067,-0.0061,-0.011,-0.0137,-0.0231,-0.019,-0.032,-0.0339,-0.0388,-0.0463,-0.0464,-0.0547,-0.055,-0.0553,-0.0591,0,0,0,0,0]}]]